Location: Mercogliano
(40.9167°N, 14.7333°E)
Time: 05:01:57
(UTC+00:00)

Cosmos 1464 Rocket - Pass Details

Date: 18 September 2020
Orbit: 953 x 1000 km, 82.9° (Epoch: 25 October)

Event Time Altitude Azimuth Distance (km) Brightness Sun altitude
Rises 17:55:32 0° 167° (SSE) 3,614 6.7 -10.4°
Reaches altitude 10° 17:58:06 10° 161° (SSE) 2,672 6.0 -10.9°
Maximum altitude 18:03:52 46° 90° (E) 1,262 4.2 -11.9°
Drops below altitude 10° 18:09:42 10° 19° (NNE) 2,700 6.3 -13.0°
Sets 18:12:18 0° 14° (NNE) 3,656 7.0 -13.5°
